Theta_e
290 284 280 284 288 289 289 285 282 283 285 283 281 279 281 282 282 282 282 283 284 284 287 288 289 290 290 290 288 289 289 290 291 291 290 291 290 292 292 292 293 293 293 293
285 279 282 285 286 287 286 284 281 283 285 284 281 279 282 283 282 283 282 282 283 284 285 286 288 289 289 289 289 289 289 290 290 290 291 291 291 291 292 292 293 293 293 293
280 279 282 283 282 282 282 282 282 281 284 285 283 280 280 283 283 284 284 284 284 284 284 285 286 287 288 288 289 288 289 290 290 290 291 290 291 291 290 291 292 292 292 293
280 282 282 282 279 281 278 283 284 283 283 281 284 281 282 283 282 283 284 285 285 285 285 286 286 286 287 288 290 290 290 290 290 291 290 289 288 287 289 289 291 291 292 292
277 279 280 280 278 282 280 285 284 283 282 281 280 280 282 285 281 283 285 285 286 286 285 285 286 287 288 289 289 290 290 290 290 290 290 289 288 289 289 289 290 291 292 291
279 281 280 279 281 284 285 283 283 283 282 278 277 278 281 282 284 286 287 287 287 287 287 287 287 288 288 289 290 290 289 289 290 290 290 289 288 288 288 288 289 289 290 291
279 278 280 281 280 283 282 282 280 279 279 278 277 276 283 286 286 289 288 288 288 288 287 287 286 287 288 288 289 290 289 289 290 290 289 289 289 289 288 288 288 288 288 289
280 277 278 280 278 277 278 278 278 274 276 277 274 275 281 285 287 288 288 290 289 287 287 287 287 287 287 288 289 290 290 289 290 290 289 290 290 289 289 289 289 288 289 289
278 275 279 279 280 279 278 279 277 272 264 273 278 279 281 283 284 285 286 287 287 287 288 287 287 287 287 288 288 289 289 290 289 290 290 290 290 289 289 289 289 289 289 289
279 276 277 278 279 279 278 279 277 278 274 273 277 276 280 278 281 284 284 285 286 287 288 287 287 287 288 288 289 289 290 289 289 290 290 289 289 290 289 289 289 289 289 289
279 280 275 277 276 277 276 276 274 277 275 275 274 279 285 284 284 283 285 286 287 287 287 288 288 288 288 289 288 289 289 289 290 290 290 290 290 289 289 289 289 289 289 288
279 282 277 276 277 277 276 277 277 278 273 273 273 276 282 283 285 286 286 286 287 288 288 288 288 287 287 288 288 288 289 289 290 290 290 290 289 289 288 288 288 289 287 288
279 279 277 275 274 276 274 276 276 274 276 274 274 278 281 281 282 284 285 286 287 287 287 286 286 286 287 287 288 288 289 289 290 289 289 289 289 288 288 288 288 288 287 286
280 278 279 279 276 278 273 275 274 275 274 276 274 278 281 279 280 282 283 284 286 286 285 285 286 286 287 288 288 288 289 290 290 289 289 288 288 288 288 288 287 287 286 284
278 276 273 273 273 273 274 275 274 271 277 275 279 278 281 283 283 284 285 284 284 283 284 284 285 286 287 288 288 288 289 289 289 288 287 287 288 288 287 287 286 285 284 282
276 275 271 270 269 271 270 274 275 274 275 276 276 275 282 284 285 284 283 283 282 282 283 285 285 286 286 286 287 288 288 288 289 287 286 287 287 286 286 285 283 282 281 280
274 271 271 274 267 267 270 273 274 275 277 276 273 279 282 281 280 282 284 282 282 283 284 285 285 286 286 287 288 287 288 288 287 286 286 286 286 284 283 282 280 280 279 279
273 274 274 273 267 268 278 276 276 276 278 279 279 280 282 282 283 284 284 283 283 284 284 284 286 286 288 289 288 288 288 287 286 285 285 284 283 282 280 279 278 277 277 277
275 275 269 271 271 275 278 275 273 274 276 280 279 280 281 283 283 281 284 284 284 285 285 287 288 288 287 287 287 286 285 285 284 282 282 281 279 277 276 275 275 275 275 275
273 274 275 267 269 270 278 275 278 278 272 283 281 281 281 281 275 282 286 285 285 285 284 284 286 286 285 284 285 283 282 281 280 280 279 277 275 274 273 273 273 274 274 274
269 271 270 270 270 274 279 276 279 272 278 283 282 282 282 279 282 286 285 285 286 285 284 285 283 282 282 282 282 279 279 278 279 275 274 273 272 272 272 272 273 272 272 272
270 270 269 272 268 266 278 275 274 282 283 282 283 284 283 283 284 284 284 284 284 284 283 284 281 280 281 281 280 277 277 276 274 273 271 271 270 271 272 271 271 271 271 270
272 278 275 275 274 278 278 281 281 283 283 282 283 284 284 283 283 283 283 284 284 284 283 282 280 279 280 279 279 278 277 273 271 270 269 269 270 270 270 270 270 270 270 270
273 279 276 274 279 278 278 281 282 283 282 284 284 284 283 282 282 282 282 282 282 283 283 282 281 278 278 277 276 275 272 271 270 269 269 269 269 270 270 270 270 270 269 268
276 275 275 275 277 278 280 280 282 283 283 282 283 282 282 282 282 282 282 282 283 283 283 282 281 281 280 279 275 271 270 270 269 269 268 269 270 269 268 269 269 268 269 269
276 276 275 276 281 281 283 284 283 282 282 283 282 282 282 282 281 282 282 283 283 282 282 281 281 278 278 275 273 269 267 267 266 268 269 269 267 267 267 267 267 270 270 271
Wind_Speed
18 13 15 15 13 9 11 14 14 10 3 10 12 12 9 7 5 4 6 7 7 9 9 10 10 10 10 11 12 13 13 15 11 10 9 9 9 8 9 9 12 13 13 14
8 15 10 6 10 11 12 13 11 9 5 8 9 9 7 6 4 3 3 4 5 6 8 8 8 8 8 8 9 10 11 12 11 8 9 7 8 8 8 9 10 12 13 13
15 7 5 4 9 9 12 7 3 6 9 8 6 8 10 8 6 6 5 3 2 2 5 6 7 8 7 6 7 7 8 9 10 10 7 7 7 7 9 8 8 10 13 11
10 6 4 4 7 9 5 4 9 7 2 2 2 1 10 11 10 9 8 7 4 2 3 5 6 7 6 5 3 5 5 7 8 9 8 10 8 8 8 9 8 9 12 12
4 7 9 9 7 9 5 4 4 2 4 2 2 3 6 11 11 13 12 9 7 3 2 6 7 6 6 4 4 3 4 5 6 7 8 7 8 6 6 7 10 10 9 11
6 2 4 5 5 7 6 3 3 1 2 3 3 3 7 8 16 12 14 12 9 8 4 3 5 4 4 4 3 3 4 4 4 5 7 7 8 8 8 9 7 7 7 7
3 4 2 4 1 2 3 3 1 3 3 2 3 4 5 8 3 7 11 13 11 9 6 3 5 5 5 5 4 5 4 5 4 5 5 6 7 7 9 8 7 10 8 7
4 4 3 5 4 4 3 3 4 4 3 3 2 5 3 3 2 4 4 9 10 9 7 4 5 5 5 6 6 6 6 7 6 6 7 6 7 5 5 7 7 7 7 8
3 4 3 4 4 3 2 1 2 3 1 3 1 4 5 6 6 7 8 9 11 10 9 7 5 6 6 6 7 7 7 8 8 8 7 8 7 8 8 9 9 8 10 9
2 3 1 3 2 5 3 4 3 2 3 5 3 4 3 10 12 11 11 13 12 10 10 9 7 6 7 7 7 7 8 10 9 9 8 8 8 8 9 9 10 11 10 12
2 1 4 2 5 2 4 3 2 1 1 3 5 1 2 7 11 13 13 12 11 11 11 10 10 8 8 8 8 8 8 10 10 9 9 9 8 9 9 8 9 10 11 12
3 1 3 1 2 2 3 2 3 3 4 1 2 8 3 3 4 8 10 10 10 10 9 9 9 10 10 10 10 10 9 9 9 9 8 9 9 9 9 9 10 10 11 11
6 3 2 3 3 2 5 6 4 3 2 7 4 5 4 5 6 8 9 9 9 9 10 9 10 10 10 11 10 10 10 10 8 9 8 9 9 9 9 9 9 9 10 11
3 1 4 4 3 3 5 9 9 3 5 6 11 13 9 9 10 10 11 11 10 10 11 12 11 10 9 9 10 9 9 9 9 8 8 9 8 8 8 8 9 9 10 11
3 5 2 1 2 2 5 8 15 13 11 10 11 10 17 8 7 10 10 10 11 11 12 12 10 9 10 9 10 9 9 8 9 9 8 9 8 7 8 8 8 9 10 10
5 2 2 1 2 3 7 13 16 20 21 21 18 25 21 22 17 13 12 10 11 11 11 10 9 9 9 10 9 8 9 8 7 8 9 8 7 7 8 8 9 10 10 11
8 8 5 4 2 3 6 19 20 14 13 21 16 15 9 5 4 6 4 10 11 10 9 9 10 9 9 9 7 8 9 8 7 8 8 8 7 7 8 8 10 10 10 11
8 5 2 1 2 8 1 3 5 20 12 20 16 17 10 8 8 7 7 11 11 7 9 10 8 7 8 8 7 8 8 8 8 8 8 7 7 7 7 9 9 10 10 10
2 5 5 4 6 9 11 9 9 11 10 22 21 20 18 11 8 16 15 15 13 8 10 9 7 7 8 8 7 8 9 7 5 5 5 4 4 6 7 7 9 10 10 10
3 2 3 4 6 9 2 4 4 5 9 15 20 17 13 8 7 8 4 7 8 8 6 7 8 6 7 9 5 7 9 7 7 5 4 2 3 5 6 8 8 8 10 11
6 4 11 8 8 7 7 12 9 6 6 8 14 14 12 10 10 9 1 6 6 6 7 7 6 8 10 6 6 9 7 9 4 3 3 3 4 5 6 7 7 8 9 10
14 13 8 7 8 14 16 11 11 3 3 8 11 11 11 13 9 7 9 7 8 6 7 8 5 7 9 6 5 8 9 4 4 3 2 3 4 4 5 6 7 8 9 11
9 8 10 15 13 3 25 5 17 3 5 7 10 8 9 8 10 11 11 9 10 10 5 4 6 7 8 6 7 8 3 5 4 3 3 4 4 4 5 7 8 8 8 8
8 8 5 3 10 16 18 17 5 13 9 4 6 5 6 10 10 9 9 9 9 10 10 5 6 8 10 5 5 4 4 4 4 4 4 4 4 4 5 6 7 7 7 8
5 14 9 5 12 5 11 19 19 13 13 11 10 9 12 12 11 10 10 10 10 10 9 6 7 9 8 2 3 4 4 4 3 3 3 4 4 4 6 7 7 7 8 9
9 10 10 11 11 9 4 16 18 16 17 15 12 12 12 11 11 11 9 9 9 10 8 6 7 5 5 4 4 5 3 2 2 3 3 3 4 5 6 7 7 11 16 19
Wind_Direction
39 66 46 25 41 55 77 98 105 102 54 75 103 123 131 136 130 104 81 73 61 53 48 36 34 36 38 42 40 34 32 31 25 26 24 25 24 29 24 19 19 15 13 9
97 52 23 30 41 64 84 95 97 87 77 114 134 131 145 171 155 154 135 109 65 49 35 35 36 35 34 35 40 40 34 33 32 27 20 17 18 29 19 19 16 17 11 8
68 21 336 24 42 75 47 63 68 104 107 104 163 172 187 189 196 205 209 172 162 53 24 30 29 25 25 26 27 33 31 31 30 24 23 20 21 22 14 13 9 7 7 5
63 19 13 70 68 340 73 5 101 118 256 58 281 33 202 188 213 222 219 203 195 128 40 30 19 16 12 12 5 19 15 30 28 25 21 22 17 9 7 7 360 358 0 0
56 33 14 36 8 326 103 197 60 43 65 252 151 258 91 183 223 224 221 217 199 178 48 20 13 359 348 353 334 334 347 9 19 17 15 11 12 5 355 359 352 356 352 353
82 93 41 23 358 36 127 158 166 188 133 236 140 293 160 184 223 218 208 206 207 201 211 353 5 345 338 332 298 283 309 323 349 354 0 2 357 351 349 353 347 348 346 345
139 43 75 7 227 176 268 260 221 200 212 32 116 247 312 189 191 228 201 201 203 207 219 284 338 335 327 324 303 265 271 291 296 311 332 347 342 339 343 340 338 337 336 338
192 177 351 358 22 7 26 332 331 307 322 28 149 228 115 139 195 180 246 201 203 208 215 251 310 308 301 304 299 289 269 284 296 295 313 326 335 331 328 337 326 320 327 325
154 113 122 54 43 301 101 242 47 97 106 260 92 222 180 177 202 204 206 202 210 217 224 237 286 286 286 291 297 297 284 280 288 287 290 302 314 322 318 321 321 321 322 321
127 121 161 104 244 68 316 111 189 164 307 282 169 267 258 206 212 202 212 215 220 226 232 235 252 275 269 272 279 279 270 268 274 280 275 281 294 300 304 307 308 313 316 319
175 281 120 254 207 164 159 178 79 45 312 291 309 236 11 195 194 204 213 218 223 227 234 239 246 271 266 262 261 262 259 262 266 267 267 268 277 290 297 295 298 308 314 313
126 23 150 88 84 338 293 273 245 242 171 207 318 270 153 159 214 210 209 217 228 236 242 248 260 274 267 261 259 255 256 257 259 269 269 266 271 278 282 286 296 304 304 304
175 204 163 202 192 190 240 191 182 86 326 209 216 258 170 183 217 220 230 228 227 238 238 242 261 256 257 256 256 260 263 260 261 264 257 260 262 268 277 282 290 295 297 302
168 183 250 273 53 92 191 195 189 202 199 184 232 271 225 208 226 230 235 236 241 243 248 259 267 257 256 258 265 271 275 268 264 263 260 259 265 272 275 282 286 292 301 303
220 216 168 230 243 281 259 219 197 206 212 212 262 253 262 273 250 243 242 238 245 260 260 255 252 254 260 263 266 265 265 270 272 261 263 268 269 273 277 284 292 298 302 299
177 180 129 277 353 289 278 251 233 228 242 249 259 271 275 274 266 256 243 225 241 248 251 252 254 257 262 262 264 271 275 275 273 266 266 273 270 269 277 287 297 300 300 299
163 150 156 219 353 321 259 243 207 211 220 222 233 239 238 250 233 245 207 218 231 241 245 245 250 257 255 253 265 270 275 286 277 266 270 273 275 279 285 297 299 299 299 300
146 166 187 129 211 244 214 205 268 223 239 223 244 246 249 253 265 261 233 235 243 238 247 251 253 259 262 261 273 277 276 271 266 264 274 276 270 278 292 294 297 299 298 298
198 152 151 207 215 326 290 190 191 191 248 225 230 243 249 255 274 274 233 232 240 226 233 237 246 249 263 264 271 276 271 267 253 237 242 256 271 283 290 291 294 296 298 296
101 18 247 158 232 244 103 158 158 158 268 234 199 223 227 161 225 269 124 186 207 219 218 231 242 251 255 258 241 258 257 253 238 230 214 219 258 272 279 286 291 293 294 293
159 179 216 205 252 273 256 149 165 185 290 151 182 206 199 193 232 296 83 217 215 213 227 236 225 237 250 247 224 246 250 245 233 152 189 224 253 264 272 282 291 300 297 297
168 164 187 194 229 271 150 132 207 189 111 163 182 195 204 211 244 260 257 249 253 237 246 249 224 242 255 225 215 248 240 206 163 175 232 249 251 273 289 295 298 297 295 294
207 204 181 191 205 126 178 182 211 286 175 184 192 206 212 219 236 255 266 271 272 270 246 216 218 251 258 208 214 244 234 151 155 206 245 262 271 282 284 293 296 297 293 295
227 195 226 151 225 223 210 236 220 224 239 217 217 208 210 241 255 262 266 263 261 261 262 231 226 242 260 215 213 220 134 145 170 229 248 258 266 292 294 287 291 292 295 300
179 150 191 253 272 274 227 223 236 227 232 247 247 241 246 256 255 246 247 251 253 260 262 248 246 256 265 182 173 149 165 172 216 238 261 279 283 294 296 283 287 288 287 290
193 174 179 216 220 194 212 207 219 220 227 232 233 246 241 238 244 246 250 253 256 259 265 253 249 242 254 195 163 131 111 142 214 263 271 303 304 298 297 295 295 290 292 299